Weather History for TNCC - July, 2013

Change the Weather History Date:

Thursday, July 18, 2013

  Actual Average Record
Temperature  
Mean Temperature 84 °F -  
Max Temperature 89 °F 89 °F 91 °F (1996)
Min Temperature 80 °F 77 °F 71 °F (2008)
Cooling Degree Days 20    
Growing Degree Days 34 (Base 50)    
Moisture  
Dew Point 76 °F    
Average Humidity 75    
Maximum Humidity 84    
Minimum Humidity 60    
Precipitation  
Precipitation 0.00 in 0.05 in - ()
Sea Level Pressure  
Sea Level Pressure 29.93 in    
Wind  
Wind Speed 11 mph ()    
Max Wind Speed 17 mph    
Max Gust Speed -    
Visibility 7.7 miles    
Events      
Averages and records for this station are not official NWS values.
T = Trace of Precipitation, MM = Missing Value Source: Averaged Metar Reports

Daily Weather History Graph

Daily Weather History Graph

Search for Another Location

Airport or City:

Trip Planner

Search our weather history database for the weather conditions in past years. The results will help you decide how hot, cold, wet, or windy it might be!

Date:

Astronomy

Jul. 18, 2013 Rise Set
Actual Time 6:19 AM AST 7:04 PM AST
Civil Twilight 5:56 AM AST 7:27 PM AST
Nautical Twilight 5:29 AM AST 7:54 PM AST
Astronomical Twilight 5:02 AM AST 8:21 PM AST
Moon 3:02 PM AST (7/18) 1:57 AM AST (7/18)
Length of Visible Light 13h 30m
Length of Day
12h 45m
Waxing Gibbous, 77% of the Moon is Illuminated
Jul 18
Waxing Gibbous
Jul 22
Full
Jul 29
Last Quarter
Aug 6
New
Aug 14
First Quarter

Hourly Weather History & Observations

Time (AST) Temp. Heat Index Dew Point Humidity Pressure Visibility Wind Dir Wind Speed Gust Speed Precip Events Conditions
12:00 AM 82.4 °F 90.9 °F 77.0 °F 84% 29.95 in 6.2 mi ESE 10.4 mph - N/A   Scattered Clouds
1:00 AM 82.4 °F 90.9 °F 77.0 °F 84% 29.92 in 6.2 mi East 11.5 mph - N/A   Scattered Clouds
2:00 AM 82 °F - 76 °F 76% 29.93 in 12 mi ESE 12.7 mph - -   Haze
2:00 AM 82.4 °F 89.5 °F 75.2 °F 79% 29.92 in 6.2 mi East 12.7 mph - N/A   Scattered Clouds
3:00 AM 80.6 °F 86.2 °F 75.2 °F 84% 29.92 in 6.2 mi ESE 8.1 mph - N/A   Scattered Clouds
4:00 AM 80.6 °F 86.2 °F 75.2 °F 84% 29.89 in 6.2 mi ESE 9.2 mph - N/A   Scattered Clouds
5:00 AM 81 °F - 75 °F 78% 29.91 in 12 mi ESE 8.1 mph - -   Haze
5:00 AM 80.6 °F 86.2 °F 75.2 °F 84% 29.89 in 6.2 mi ESE 9.2 mph - N/A   Scattered Clouds
6:00 AM 80.6 °F 86.2 °F 75.2 °F 84% 29.92 in 6.2 mi ESE 6.9 mph - N/A   Scattered Clouds
7:00 AM 80.6 °F 86.2 °F 75.2 °F 84% 29.92 in 6.2 mi ESE 9.2 mph - N/A   Scattered Clouds
8:00 AM 85 °F - 76 °F 67% 29.95 in 16 mi ESE 13.8 mph - -   Partly Cloudy
8:00 AM 84.2 °F 92.3 °F 75.2 °F 74% 29.95 in 6.2 mi East 13.8 mph - N/A   Mostly Cloudy
9:00 AM 84.2 °F 92.3 °F 75.2 °F 74% 29.95 in 6.2 mi East 12.7 mph - N/A   Mostly Cloudy
10:00 AM 87.8 °F 97.6 °F 75.2 °F 66% 29.95 in 6.2 mi East 12.7 mph - N/A   Mostly Cloudy
11:00 AM 88 °F - 76 °F 60% 29.97 in 16 mi ESE 16.1 mph - -   Partly Cloudy
11:00 AM 87.8 °F 97.6 °F 75.2 °F 66% 29.98 in 6.2 mi East 12.7 mph - N/A   Mostly Cloudy
12:00 PM 89.6 °F 102.2 °F 77.0 °F 66% 29.95 in 6.2 mi East 13.8 mph - N/A   Scattered Clouds
1:00 PM 89.6 °F 99.8 °F 75.2 °F 62% 29.92 in 6.2 mi East 16.1 mph - N/A   Mostly Cloudy
2:00 PM 89.6 °F 99.8 °F 75.2 °F 62% 29.92 in 6.2 mi East 16.1 mph - N/A   Scattered Clouds
3:00 PM 87.8 °F 99.7 °F 77.0 °F 70% 29.89 in 6.2 mi East 15.0 mph - N/A   Scattered Clouds
4:00 PM 89.6 °F 102.2 °F 77.0 °F 66% 29.89 in 6.2 mi East 13.8 mph - N/A   Scattered Clouds
5:00 PM 87.8 °F 99.7 °F 77.0 °F 70% 29.86 in 6.2 mi East 12.7 mph - N/A   Scattered Clouds
6:00 PM 86.0 °F 95.1 °F 75.2 °F 70% 29.89 in 6.2 mi East 16.1 mph - N/A   Scattered Clouds
7:00 PM 82.4 °F 90.9 °F 77.0 °F 84% 29.92 in 6.2 mi East 16.1 mph - N/A   Scattered Clouds
8:00 PM 82.4 °F 90.9 °F 77.0 °F 84% 29.92 in 6.2 mi East 17.3 mph - N/A   Scattered Clouds
9:00 PM 82.4 °F 90.9 °F 77.0 °F 84% 29.95 in 6.2 mi East 16.1 mph - N/A   Partly Cloudy
11:00 PM 83 °F - 77 °F 77% 29.99 in 16 mi East 13.8 mph - -   Partly Cloudy
11:00 PM 82.4 °F 90.9 °F 77.0 °F 84% 29.98 in 6.2 mi East 13.8 mph - N/A   Scattered Clouds